Weather History for KLMT - August, 2012

Change the Weather History Date:

Thursday, August 9, 2012

  Actual Average Record
Temperature  
Mean Temperature 69 °F 66 °F  
Max Temperature 91 °F 85 °F 97 °F (1996)
Min Temperature 47 °F 48 °F 40 °F (1993)
Degree Days  
Heating Degree Days 0 2  
Month to date heating degree days 0 11  
Since 1 June heating degree days 331 278  
Since 1 July heating degree days 42 61  
Cooling Degree Days 4 3  
Month to date cooling degree days 38 27  
Year to date cooling degree days 105 121  
Since 1 June cooling degree days 104 120  
Growing Degree Days 18 (Base 50)    
Moisture  
Dew Point 45 °F    
Average Humidity 51    
Maximum Humidity 86    
Minimum Humidity 12    
Precipitation  
Precipitation 0.00 in 0.01 in 0.34 in (1948)
Month to date precipitation T 0.12  
Year to date precipitation 6.05 9.43  
Sea Level Pressure  
Sea Level Pressure 30.01 in    
Wind  
Wind Speed 6 mph (NNW)    
Max Wind Speed 18 mph    
Max Gust Speed 25 mph    
Visibility 10 miles    
Events      
T = Trace of Precipitation, MM = Missing Value Source: NWS Daily Summary

Daily Weather History Graph

Daily Weather History Graph

Search for Another Location

Airport or City:

Trip Planner

Search our weather history database for the weather conditions in past years. The results will help you decide how hot, cold, wet, or windy it might be!

Date:

Astronomy

Aug. 09, 2012 Rise Set
Actual Time 6:08 AM PDT 8:15 PM PDT
Civil Twilight 5:38 AM PDT 8:45 PM PDT
Nautical Twilight 5:00 AM PDT 9:23 PM PDT
Astronomical Twilight 4:18 AM PDT 10:04 PM PDT
Moon No Moon Rise 2:05 PM PDT (8/9)
Length of Visible Light 15h 07m
Length of Day
14h 06m
Waning Gibbous, 50% of the Moon is Illuminated
Aug 9
Waning Gibbous
Aug 17
New
Aug 24
First Quarter
Aug 31
Full
Sep 8
Last Quarter

Hourly Weather History & Observations

Time (PDT) Temp. Dew Point Humidity Pressure Visibility Wind Dir Wind Speed Gust Speed Precip Events Conditions
12:53 AM 55.0 °F 46.9 °F 74% 30.07 in 10.0 mi Calm Calm - N/A   Clear
1:53 AM 52.0 °F 44.1 °F 74% 30.07 in 10.0 mi East 3.5 mph - N/A   Clear
2:53 AM 52.0 °F 45.0 °F 77% 30.06 in 10.0 mi Calm Calm - N/A   Clear
3:53 AM 50.0 °F 45.0 °F 83% 30.05 in 10.0 mi Calm Calm - N/A   Clear
4:53 AM 48.9 °F 45.0 °F 86% 30.04 in 10.0 mi Calm Calm - N/A   Clear
5:53 AM 53.1 °F 46.9 °F 80% 30.04 in 10.0 mi NNW 3.5 mph - N/A   Clear
6:01 AM 51.8 °F 46.4 °F 82% 30.16 in 7.0 mi North 3.5 mph - N/A   Mostly Cloudy
6:53 AM 48.2 °F 44.6 °F 87% 30.06 in 10.0 mi Calm Calm - N/A   Mostly Cloudy
7:53 AM 55.4 °F 48.2 °F 77% 30.06 in 10.0 mi Calm Calm - N/A   Mostly Cloudy
8:53 AM 66.2 °F 51.8 °F 60% 30.04 in 10.0 mi Variable 4.6 mph - N/A   Scattered Clouds
9:53 AM 71.6 °F 46.4 °F 41% 30.03 in 10.0 mi North 4.6 mph - N/A   Mostly Cloudy
10:53 AM 75.2 °F 46.4 °F 36% 30.01 in 9.0 mi Calm Calm - N/A   Mostly Cloudy
11:53 AM 78.8 °F 42.8 °F 28% 30.02 in 10.0 mi WSW 4.6 mph - N/A   Mostly Cloudy
12:53 PM 82.4 °F 41.0 °F 23% 30.00 in 10.0 mi SE 5.8 mph - N/A   Mostly Cloudy
1:53 PM 84.9 °F 42.1 °F 22% 29.99 in 8.0 mi Variable 5.8 mph - N/A   Mostly Cloudy
2:53 PM 87.8 °F 39.2 °F 18% 29.96 in 8.0 mi WNW 5.8 mph - N/A   Mostly Cloudy
3:53 PM 89.6 °F 35.6 °F 15% 29.95 in 10.0 mi NW 8.1 mph - N/A   Scattered Clouds
4:53 PM 89.1 °F 30.9 °F 12% 29.94 in 10.0 mi WNW 11.5 mph - N/A   Scattered Clouds
5:53 PM 88.0 °F 37.0 °F 16% 29.93 in 10.0 mi NW 13.8 mph 21.9 mph N/A   Scattered Clouds
6:53 PM 82.9 °F 43.0 °F 24% 29.95 in 10.0 mi NNW 15.0 mph - N/A   Partly Cloudy
7:53 PM 78.1 °F 44.1 °F 30% 29.95 in 10.0 mi NNW 16.1 mph 21.9 mph N/A   Partly Cloudy
8:53 PM 73.9 °F 48.9 °F 41% 29.95 in 10.0 mi NNW 13.8 mph - N/A   Partly Cloudy
9:53 PM 71.1 °F 52.0 °F 51% 29.98 in 10.0 mi NW 9.2 mph - N/A   Clear
10:53 PM 66.0 °F 52.0 °F 60% 29.99 in 10.0 mi WNW 8.1 mph - N/A   Clear
11:53 PM 61.0 °F 50.0 °F 67% 30.00 in 10.0 mi Calm Calm - N/A   Clear